カタログに戻る

ATLAS 5 CENTAUR R/B

運用中HEO
NORAD 40888·ROCKET BODY·🇺🇸 United States

打ち上げ Sep 2, 2015 から Cape Canaveral Space Force Station

Loading…

次のパス (今後24時間)

TLE

最新Source: Space-Track

元期: Sep 7, 2026, 06:52 UTC

1 40888U 15044B   26250.28666593 -.00000110  00000-0  00000-0 0  9995
2 40888  19.2302 317.8623 6071685  72.3156 342.3753  2.08775769 84026

AllMySatでATLAS 5 CENTAUR R/Bをリアルタイム追跡

Download on the App Store